Temperature
16 16 16 16 16 16 16 16 16 16 16 16 16 16 15 15 15 15 15 15 15 15 15 15 15 15 15 15 15 15 15 15 15 14 14 14 14 14 14 14 14 14 14
17 16 16 16 16 16 16 16 16 16 16 16 15 15 15 15 15 15 15 15 14 14 14 14 14 14 14 15 14 15 15 15 15 14 14 14 14 14 14 14 14 14 14
17 16 16 16 16 16 16 16 16 15 15 15 15 15 15 15 15 15 14 14 14 14 14 14 14 14 14 14 14 14 14 14 14 14 14 14 14 14 14 14 14 13 13
17 16 16 16 15 15 15 15 15 15 15 15 15 15 15 15 15 15 14 14 14 14 14 14 14 14 14 14 14 14 14 14 14 14 14 14 14 14 14 13 13 13 13
16 16 16 16 15 15 15 15 15 15 15 15 15 15 15 15 15 14 14 14 14 14 14 14 14 14 14 13 13 13 14 14 14 14 14 14 14 14 13 13 13 13 13
16 16 16 15 15 15 15 15 15 15 15 15 15 15 15 15 14 14 14 14 14 14 14 14 14 14 13 13 13 13 13 13 13 13 13 13 13 13 13 13 13 13 13
16 16 15 15 15 15 15 15 15 15 15 15 14 14 14 14 14 14 14 14 14 14 14 14 14 13 13 13 13 13 13 13 13 13 13 13 13 13 13 13 13 13 12
16 15 15 15 15 15 15 15 15 15 14 14 14 14 14 14 14 14 14 14 14 14 14 14 14 13 13 13 13 13 13 13 13 13 13 13 13 13 13 12 12 12 12
15 15 15 15 15 15 15 15 14 14 14 14 14 14 14 14 14 14 14 14 14 14 14 14 14 13 13 13 13 13 13 13 13 13 13 12 12 13 12 12 12 12 12
14 14 14 14 14 14 14 14 14 14 14 14 14 14 14 14 14 14 14 14 14 14 13 13 13 13 13 13 13 13 12 12 12 12 12 12 12 12 12 12 12 12 12
14 14 14 14 14 14 14 14 14 14 14 14 14 14 13 13 13 13 13 13 13 13 13 13 13 13 13 13 13 12 12 12 12 12 12 12 12 12 12 12 12 12 12
13 13 14 14 14 14 13 13 13 13 13 13 13 13 13 13 13 13 13 13 13 13 13 13 13 13 13 13 12 12 12 12 12 12 12 12 12 12 12 12 12 12 12
14 13 13 13 13 13 13 13 13 13 13 13 13 13 13 13 13 13 13 13 13 13 13 13 13 12 12 12 12 12 12 12 12 12 12 12 12 12 12 12 11 11 12
13 13 13 13 13 13 13 13 13 13 13 13 13 13 13 13 13 13 13 13 13 13 13 13 12 12 12 12 12 12 12 12 12 12 12 12 11 11 11 11 11 11 11
13 13 13 13 13 13 13 13 13 13 13 13 13 13 13 13 13 13 12 12 12 12 12 12 12 12 12 12 11 11 11 11 11 11 11 11 11 11 11 11 11 11 11
12 12 12 12 12 12 13 13 13 13 13 12 12 12 12 12 12 12 12 12 12 12 12 12 12 12 11 11 11 11 11 11 11 11 11 11 11 11 11 11 11 11 11
12 12 12 12 12 12 12 12 12 12 12 12 12 12 12 12 12 12 12 12 12 11 11 11 11 11 11 11 11 11 11 11 11 11 11 11 11 11 11 11 11 11 11
11 11 11 11 11 11 12 12 12 12 12 12 12 12 12 12 12 11 11 11 11 11 11 11 11 11 11 11 11 11 11 11 11 11 11 11 11 11 11 11 11 11 10
11 11 11 11 11 11 11 11 11 11 11 11 11 11 11 11 11 11 11 11 11 11 10 10 10 10 11 10 10 10 10 10 11 11 11 11 11 11 10 10 10 10 10
11 11 11 11 11 11 11 11 11 11 11 11 11 11 11 11 11 11 11 10 10 10 10 10 10 10 10 10 10 10 10 10 10 10 10 10 10 10 10 10 10 10 10
10 10 10 10 10 10 10 10 10 10 10 10 11 10 11 10 10 10 10 10 10 10 10 10 10 10 10 9 9 9 10 10 10 10 10 10 10 10 10 10 10 10 10
10 10 10 10 10 10 10 10 10 10 10 10 10 10 10 10 10 10 10 10 10 10 10 10 10 9 9 9 9 9 8 9 9 10 10 10 10 9 9 9 9 9 9
9 9 9 9 9 9 9 9 9 9 9 9 9 9 9 9 9 9 9 9 9 9 9 9 9 9 9 9 8 8 8 8 9 9 9 9 9 9 9 9 9 9 9
8 8 8 8 8 8 8 8 9 8 8 9 9 9 9 9 9 9 9 9 9 9 9 9 9 9 9 8 8 8 8 8 8 8 9 9 9 9 9 9 9 9 9
8 8 8 8 8 8 8 8 8 8 8 8 8 8 8 8 8 9 9 9 9 9 9 8 8 8 8 8 8 8 8 8 8 8 8 8 8 9 9 8 8 8 8
7 7 7 7 7 7 7 7 7 7 8 7 7 8 8 8 8 8 8 8 8 8 8 8 8 8 8 8 8 8 8 8 7 7 7 7 8 8 8 8 8 8 8
Wind_Speed
5 8 12 12 12 12 12 14 14 14 13 13 14 14 14 14 14 13 13 13 13 14 14 14 14 14 14 15 15 15 15 15 15 15 15 15 15 15 14 14 13 13 14
9 11 13 13 13 12 13 13 14 14 14 14 13 13 13 13 13 13 13 13 13 13 13 13 13 13 14 14 14 14 14 14 13 13 14 13 14 14 14 13 13 12 14
10 11 13 13 13 12 13 13 13 14 14 13 13 13 13 13 13 12 12 12 12 12 13 12 13 12 13 13 13 13 13 12 12 12 12 11 11 12 12 12 13 13 12
12 11 12 13 13 13 13 13 13 13 14 14 13 13 13 13 13 12 12 12 12 12 12 12 12 12 12 12 12 12 11 11 12 11 10 9 9 11 11 11 11 11 11
11 11 12 13 13 12 12 13 13 13 13 13 13 13 13 13 12 12 12 12 12 12 12 11 11 10 10 11 11 10 11 11 11 11 9 9 9 10 11 11 10 10 10
9 11 12 14 12 12 12 12 13 13 13 13 13 13 12 12 12 12 12 12 12 11 11 11 10 10 10 10 10 9 10 11 11 10 9 8 8 9 9 9 9 9 9
9 10 12 14 13 12 12 11 12 12 12 13 13 12 12 12 12 12 12 11 11 11 11 10 10 9 9 9 9 9 10 10 10 9 8 7 7 8 8 8 9 9 9
10 9 11 13 13 12 11 11 11 12 13 13 12 12 12 12 12 12 12 12 11 11 10 10 9 8 8 8 8 8 8 9 8 7 6 6 7 8 8 8 8 7 7
9 8 8 10 11 11 11 11 11 11 13 13 12 12 12 12 12 11 11 11 11 10 10 9 8 7 7 7 7 7 7 8 8 6 5 5 7 7 7 7 7 6 6
6 6 6 8 9 8 8 9 10 11 12 13 12 12 11 11 12 12 11 11 10 10 9 8 7 7 7 6 6 6 6 7 6 5 5 5 7 6 6 6 6 6 5
6 5 6 6 7 7 8 8 9 10 11 12 12 12 11 10 10 10 11 10 10 9 9 8 7 7 6 5 5 5 5 5 5 5 5 5 6 5 5 5 5 5 5
6 6 5 6 6 7 7 6 7 7 8 10 10 10 10 9 9 9 11 11 10 9 8 8 7 6 4 3 4 4 4 4 5 4 4 6 5 5 5 5 4 4 4
6 6 6 7 7 7 5 5 5 5 6 8 9 10 9 8 8 8 8 8 8 8 7 6 5 4 3 2 3 3 3 4 4 4 4 5 5 5 5 4 4 3 3
5 6 5 6 6 7 6 5 5 5 5 5 8 10 9 6 6 6 6 7 7 6 6 5 4 4 3 2 3 3 4 4 4 4 4 5 5 5 5 4 4 3 3
5 5 5 5 6 6 6 5 5 5 5 6 7 10 10 7 6 6 6 6 7 7 6 5 5 4 3 2 2 3 3 4 4 4 3 4 5 5 5 4 4 4 3
4 4 4 5 5 5 5 5 5 6 6 7 7 9 11 9 8 7 6 6 6 7 7 6 5 4 3 2 2 3 3 4 4 3 3 3 4 4 5 5 4 4 3
4 3 4 4 5 5 5 6 5 6 7 6 7 9 11 11 10 8 6 6 7 8 7 6 5 4 2 2 2 2 3 4 4 4 4 4 3 3 4 4 4 4 4
3 3 4 3 4 4 4 4 4 6 6 6 7 8 10 12 12 9 7 6 8 8 6 5 4 3 3 2 2 2 2 3 4 4 4 4 4 3 3 4 3 4 4
4 4 4 3 3 4 4 3 3 4 5 6 7 7 9 11 12 10 7 7 9 7 5 5 3 3 3 3 2 2 2 2 3 4 4 4 5 5 4 4 4 4 4
3 4 4 4 3 3 3 2 2 2 4 5 6 7 9 10 11 10 7 8 9 6 5 5 5 3 3 3 2 1 2 2 2 3 4 4 5 5 6 5 4 4 5
2 3 4 4 4 3 3 3 3 4 4 4 6 8 9 10 11 9 7 8 8 7 7 7 5 4 2 2 1 1 2 2 2 3 3 3 4 5 6 6 5 4 4
2 3 4 4 4 4 4 4 4 4 4 4 4 6 9 10 10 10 8 7 8 6 7 7 5 4 3 3 3 1 1 2 3 3 2 3 3 4 5 6 6 6 5
1 2 3 4 4 4 4 3 2 1 1 3 3 4 6 8 10 10 10 8 8 7 8 8 8 7 4 4 3 3 3 4 2 3 3 3 3 3 4 5 6 7 7
3 2 2 3 3 3 3 3 5 4 4 5 4 4 5 7 8 8 9 9 8 7 7 8 7 5 6 5 3 2 2 3 2 2 3 2 4 4 5 5 5 7 7
2 2 2 2 3 3 3 4 5 4 4 3 3 4 5 6 7 8 8 8 8 7 7 7 7 6 6 6 4 3 2 1 1 2 3 3 3 4 4 5 5 6 7
3 2 2 2 3 4 4 4 5 5 4 4 4 5 5 5 6 7 8 7 7 6 7 7 7 8 7 7 5 4 4 3 3 3 3 4 4 4 4 4 5 6 7
Wind_Direction
169 169 159 154 146 141 135 133 130 128 128 125 121 120 118 116 113 113 114 113 111 110 108 105 103 100 96 94 92 89 87 84 82 80 80 80 80 80 81 81 80 78 80
159 163 157 153 147 142 138 133 131 130 129 128 127 126 124 122 120 116 114 116 115 113 110 108 105 103 100 98 95 92 90 88 86 82 81 80 81 81 82 84 83 84 82
149 155 155 152 148 143 140 135 132 135 134 132 131 129 128 126 123 120 118 116 116 116 114 112 108 106 104 102 98 94 92 90 90 86 83 78 82 85 83 83 82 81 82
147 150 153 151 150 147 142 139 136 135 135 135 135 132 131 128 125 123 121 118 118 118 118 116 113 109 107 105 101 96 92 92 92 90 82 80 83 87 83 81 82 81 82
145 148 154 151 149 149 144 143 142 139 136 137 137 136 134 130 127 126 125 121 120 119 119 118 117 116 112 110 105 100 95 95 93 91 85 82 86 89 87 83 83 83 85
144 146 152 151 151 149 148 145 145 144 142 140 139 140 137 134 132 130 127 124 124 124 122 120 119 119 117 113 109 104 98 98 97 93 86 86 89 93 91 87 85 87 89
143 144 150 150 152 151 151 150 150 148 147 145 142 143 141 139 137 133 131 130 131 130 127 126 122 122 124 119 115 109 101 103 100 95 89 89 96 98 96 93 89 90 91
142 143 149 150 152 154 153 154 153 154 152 149 147 143 143 142 139 137 138 136 135 135 133 130 128 122 126 122 118 111 104 107 104 100 98 99 106 105 102 100 92 89 93
135 138 142 146 150 152 153 154 157 157 156 152 149 147 144 144 144 142 139 140 140 137 135 132 132 132 128 121 120 114 106 109 107 106 109 116 118 110 108 104 97 89 96
129 140 144 143 144 148 153 154 157 156 156 154 150 148 147 146 148 145 142 143 142 140 139 137 136 138 131 120 117 115 112 111 109 106 113 125 124 118 115 112 103 94 98
141 153 151 148 146 150 155 158 155 157 159 157 154 151 148 147 149 149 147 146 146 144 142 139 138 134 126 120 111 110 116 121 122 114 127 137 135 128 125 123 116 108 99
165 174 165 159 156 152 157 156 156 159 160 161 159 157 153 150 151 152 153 151 150 148 146 145 141 132 121 111 106 101 115 135 133 131 146 153 154 149 141 136 129 123 112
177 178 178 172 163 158 157 153 155 159 160 165 163 162 157 151 153 152 152 156 156 155 150 149 140 134 133 126 114 107 122 137 142 148 158 168 172 170 161 154 146 140 133
174 185 184 176 169 165 160 162 164 166 170 172 176 169 161 158 158 159 159 160 159 159 152 149 147 150 156 158 146 133 139 146 152 157 165 175 181 187 182 175 170 163 150
190 191 188 176 173 169 165 170 175 181 183 184 182 179 172 168 169 166 168 168 169 164 160 158 159 160 166 169 163 148 146 155 152 161 169 179 189 199 200 192 188 182 173
203 199 186 178 177 170 175 179 184 187 185 185 187 186 179 176 173 171 173 172 174 173 171 169 168 166 172 163 160 156 160 166 165 163 167 177 196 206 209 205 199 200 201
209 205 186 181 174 173 182 187 185 190 186 189 194 192 185 180 178 175 178 181 182 179 172 165 162 159 164 169 182 176 170 171 176 180 181 176 184 199 207 211 214 220 227
203 200 190 184 181 184 187 191 189 192 190 193 196 197 194 187 182 177 181 187 183 176 172 170 169 170 183 186 198 204 187 181 184 187 184 177 172 181 210 218 222 232 239
200 198 188 185 190 199 199 193 190 196 198 198 197 199 200 194 186 180 184 186 179 174 176 182 181 177 182 188 193 206 204 202 203 198 194 192 192 190 196 215 228 240 248
197 195 190 192 196 198 197 192 193 208 212 202 201 205 201 195 191 184 183 184 178 178 183 186 182 186 183 179 177 220 253 245 218 205 205 202 205 204 197 200 208 229 246
195 196 197 196 204 194 190 199 200 212 227 220 208 208 205 197 192 187 187 186 186 190 191 187 181 181 182 151 107 347 319 292 248 225 211 202 211 212 202 199 202 215 236
214 209 210 206 201 200 205 206 209 209 216 224 220 211 209 201 195 192 190 193 193 194 192 191 179 178 191 171 149 131 270 299 284 250 228 216 214 208 211 211 210 215 222
260 233 230 226 216 211 212 205 212 219 233 226 231 225 218 207 200 195 194 192 195 195 199 198 191 185 193 203 186 167 175 221 266 273 246 230 219 223 229 220 218 220 223
260 260 261 243 230 222 207 199 198 212 226 234 226 227 227 210 203 198 195 193 195 198 204 205 198 194 183 198 217 217 194 169 181 256 283 259 243 235 234 234 228 222 220
279 266 268 269 254 237 220 211 207 226 234 241 233 228 225 218 208 201 197 192 197 201 203 204 203 198 195 197 199 198 200 214 197 195 250 272 275 252 241 237 230 223 219
329 312 289 282 269 252 235 224 213 221 232 233 236 230 226 222 217 208 200 195 198 203 205 205 207 205 204 202 202 198 192 190 202 200 229 257 267 270 261 245 237 227 224
Height
1510 1512 1514 1515 1517 1518 1519 1520 1521 1522 1524 1525 1526 1527 1527 1528 1529 1530 1530 1531 1531 1532 1532 1532 1533 1533 1533 1534 1534 1534 1534 1535 1534 1534 1535 1535 1535 1535 1535 1535 1536 1536 1536
1508 1511 1513 1515 1516 1518 1519 1520 1521 1522 1524 1525 1526 1527 1528 1529 1529 1530 1531 1531 1532 1532 1533 1533 1534 1534 1534 1534 1535 1535 1535 1535 1535 1535 1535 1536 1536 1536 1536 1537 1537 1537 1537
1508 1511 1512 1514 1516 1517 1519 1520 1521 1522 1524 1525 1526 1527 1528 1529 1530 1530 1531 1532 1532 1533 1533 1534 1534 1534 1535 1535 1536 1536 1536 1536 1536 1536 1536 1537 1537 1537 1537 1538 1538 1538 1538
1508 1510 1512 1514 1516 1517 1518 1520 1521 1522 1523 1525 1526 1527 1528 1529 1530 1531 1531 1532 1533 1533 1534 1534 1535 1535 1535 1536 1536 1537 1537 1537 1537 1537 1537 1538 1538 1538 1538 1539 1539 1538 1538
1508 1510 1511 1513 1515 1516 1518 1519 1520 1522 1523 1524 1526 1527 1528 1529 1530 1531 1531 1532 1533 1534 1534 1535 1535 1536 1536 1536 1537 1537 1537 1538 1538 1538 1538 1539 1539 1539 1539 1539 1539 1539 1539
1507 1509 1511 1512 1514 1516 1517 1519 1520 1521 1522 1524 1525 1526 1528 1529 1530 1530 1531 1532 1533 1534 1534 1535 1535 1536 1536 1537 1537 1538 1538 1538 1538 1539 1539 1539 1539 1540 1540 1540 1539 1539 1539
1506 1508 1510 1512 1513 1515 1517 1518 1519 1521 1522 1523 1525 1526 1527 1528 1529 1530 1531 1532 1533 1534 1534 1535 1536 1536 1537 1537 1538 1538 1539 1539 1539 1539 1539 1539 1540 1540 1540 1540 1540 1540 1539
1506 1507 1510 1511 1513 1514 1516 1517 1519 1520 1521 1523 1524 1525 1526 1528 1529 1530 1530 1531 1532 1533 1534 1535 1535 1536 1537 1537 1538 1538 1539 1539 1539 1539 1540 1540 1540 1540 1540 1540 1540 1540 1540
1505 1507 1508 1510 1512 1513 1515 1516 1518 1519 1520 1522 1523 1524 1526 1527 1528 1529 1530 1531 1532 1533 1533 1534 1535 1536 1537 1537 1538 1538 1539 1539 1539 1539 1540 1540 1540 1540 1540 1540 1540 1540 1540
1505 1506 1507 1509 1510 1512 1514 1515 1517 1518 1519 1520 1522 1523 1524 1526 1527 1528 1529 1530 1531 1532 1533 1534 1535 1535 1536 1537 1537 1538 1539 1539 1539 1539 1540 1540 1540 1540 1540 1540 1540 1540 1539
1503 1505 1506 1507 1509 1511 1512 1514 1515 1516 1518 1519 1520 1522 1523 1524 1525 1527 1528 1529 1530 1531 1532 1533 1534 1535 1535 1536 1537 1537 1538 1539 1539 1539 1539 1540 1540 1540 1540 1540 1539 1539 1539
1502 1503 1505 1506 1507 1509 1511 1512 1513 1515 1516 1517 1518 1520 1521 1522 1524 1525 1526 1528 1529 1530 1531 1532 1533 1534 1535 1535 1536 1537 1537 1538 1538 1539 1539 1539 1539 1539 1539 1539 1539 1539 1539
1500 1502 1503 1504 1505 1507 1508 1509 1511 1512 1514 1515 1516 1518 1519 1520 1522 1523 1524 1526 1527 1528 1529 1531 1531 1532 1534 1534 1535 1536 1536 1537 1537 1538 1538 1538 1538 1539 1538 1538 1538 1538 1538
1497 1499 1500 1502 1503 1504 1506 1507 1509 1510 1511 1512 1514 1515 1517 1518 1519 1521 1522 1524 1525 1526 1527 1529 1530 1531 1532 1533 1534 1535 1535 1536 1536 1536 1537 1537 1537 1537 1537 1537 1537 1537 1537
1495 1496 1498 1499 1501 1502 1503 1504 1506 1507 1508 1510 1511 1513 1514 1515 1517 1518 1520 1521 1523 1524 1525 1526 1528 1529 1530 1531 1532 1533 1533 1534 1535 1535 1535 1536 1536 1536 1536 1536 1536 1536 1535
1492 1494 1495 1496 1497 1499 1500 1501 1502 1504 1506 1507 1508 1510 1512 1513 1514 1516 1517 1519 1520 1521 1523 1524 1525 1526 1528 1529 1530 1531 1531 1532 1533 1533 1533 1534 1534 1534 1534 1534 1534 1534 1534
1489 1491 1492 1493 1494 1496 1497 1498 1499 1501 1502 1504 1505 1507 1509 1510 1512 1513 1514 1516 1517 1519 1520 1522 1523 1524 1525 1526 1527 1528 1529 1530 1530 1531 1531 1531 1532 1532 1532 1532 1532 1532 1532
1486 1487 1488 1490 1491 1492 1493 1494 1496 1497 1499 1500 1502 1504 1505 1507 1508 1510 1511 1513 1515 1516 1518 1519 1520 1521 1522 1523 1524 1525 1526 1527 1527 1528 1528 1529 1529 1529 1529 1530 1530 1530 1530
1483 1484 1485 1486 1487 1488 1490 1491 1492 1493 1495 1496 1498 1500 1502 1503 1505 1507 1508 1510 1512 1513 1515 1516 1517 1518 1519 1520 1521 1522 1523 1524 1524 1524 1525 1525 1526 1526 1526 1527 1527 1527 1527
1480 1481 1482 1483 1484 1485 1486 1487 1488 1490 1491 1493 1494 1496 1498 1499 1501 1503 1505 1506 1508 1509 1511 1512 1514 1515 1516 1518 1518 1519 1520 1520 1521 1521 1521 1522 1522 1523 1523 1524 1524 1524 1524
1476 1477 1478 1479 1480 1481 1482 1482 1483 1485 1486 1487 1490 1492 1494 1495 1497 1499 1500 1502 1504 1505 1507 1509 1510 1511 1512 1514 1515 1515 1516 1517 1517 1517 1518 1518 1519 1519 1519 1520 1520 1520 1520
1472 1473 1474 1475 1475 1476 1478 1479 1479 1481 1482 1484 1485 1487 1489 1491 1493 1494 1496 1498 1500 1501 1503 1504 1506 1507 1508 1510 1511 1512 1512 1513 1512 1513 1513 1514 1514 1515 1515 1516 1516 1516 1516
1468 1469 1470 1471 1471 1472 1474 1475 1476 1477 1477 1479 1481 1482 1484 1486 1488 1489 1491 1493 1495 1497 1498 1499 1501 1503 1504 1506 1508 1509 1509 1508 1508 1509 1509 1509 1510 1511 1511 1511 1512 1512 1512
1465 1465 1466 1467 1467 1468 1469 1469 1470 1471 1472 1473 1475 1477 1479 1480 1482 1484 1486 1488 1490 1492 1493 1495 1496 1498 1499 1501 1503 1504 1505 1505 1506 1504 1505 1505 1505 1506 1507 1507 1507 1507 1507
1462 1462 1462 1463 1463 1464 1464 1465 1466 1466 1468 1469 1471 1472 1473 1475 1477 1479 1481 1483 1485 1487 1488 1490 1491 1493 1494 1496 1497 1499 1500 1501 1502 1502 1500 1500 1500 1501 1502 1502 1502 1502 1502
1458 1459 1458 1458 1458 1459 1460 1460 1461 1462 1463 1464 1465 1467 1468 1469 1471 1473 1475 1477 1479 1481 1483 1485 1486 1488 1489 1491 1493 1494 1495 1496 1497 1497 1497 1496 1495 1496 1497 1497 1497 1497 1497